User: anonymous   Login
Location: *
(37.5724°S, 58.0067°E)
Time: 04:24:53
(UTC+00:00)
Language:

Cosmos 2056 Rocket - Orbit

View from above orbital plane
View from above orbital plane
View from above satellite
View from above satellite

Ground track
Ground track

The orbit data is extracted from the following two-line orbital elements,

1 20433U 90004B   20333.42226109 +.00000103 +00000-0 +44109-4 0  9998
2 20433 074.0356 202.3883 0040414 022.8501 149.6052 14.36111714615824
Epoch (UTC): 28 November 2020 10:08:03
Eccentricity: 0.0040414
inclination: 74.0356°
perigee height: 742 km
apogee height: 800 km
right ascension of ascending node: 202.3883°
argument of perigee: 22.8501°
revolutions per day: 14.36111714
mean anomaly at epoch: 149.6052°
orbit number at epoch: 61582

The dashed part of the orbit path shows where the satellite is in the earth's shadow,  

DLR